Regional Weather Roundup
Issued by NWS

Home | Current Version | Previous Version | Graphics & Text | Print | Product List | Glossary On
Versions: 1 2 3 4 5 6 7 8 9 10 11 12 13 14 15 16 17 18 19 20 21 22 23 24 25 26 27 28 29 30 31 32 33 34 35 36 37 38 39 40 41 42 43 44 45 46 47 48 49 50
000
ASUS43 KMKX 190300
RWRWI

WISCONSIN REGIONAL WEATHER ROUNDUP
NATIONAL WEATHER SERVICE MILWAUKEE/SULLIVAN WI
1000 PM CDT THU SEP 18 2014

NOTE: "FAIR" INDICATES FEW OR NO CLOUDS BELOW 12,000 FEET WITH NO
SIGNIFICANT WEATHER AND/OR OBSTRUCTIONS TO VISIBILITY.

WIZ001-002-006>008-014>016-023>028-190400-
NORTHWEST WISCONSIN

CITY           SKY/WX    TMP DP  RH WIND       PRES   REMARKS
SUPERIOR ARPT  CLOUDY    49  47  95 E6        30.03F
ASHLAND        CLEAR     39  38  96 CALM      30.07F FOG
HAYWARD        CLEAR     54  51  90 S5        30.06F
SIREN          CLEAR     56  53  88 S10       30.03S
RICE LAKE      PTCLDY    53  50  90 SE9       30.08F
LADYSMITH      CLEAR     51  49  92 SE6       30.11F FOG
EAU CLAIRE     NOT AVBL
MENOMONIE      MOCLDY    55  53  93 SE7       30.06F
NEW RICHMOND   PTCLDY    58  55  92 SE9       30.03F
OSCEOLA        PTCLDY    58  58  97 SE10      30.04F
$$

WIZ003>005-009-010-017-018-190400-
NORTH CENTRAL WISCONSIN

CITY           SKY/WX    TMP DP  RH WIND       PRES   REMARKS
WOODRUFF       CLEAR     49  47  93 S6        30.11F
RHINELANDER    CLEAR     47  45  93 S6        30.14S
EAGLE RIVER    CLEAR     46  46  98 S3        30.12S
LAND O LAKES   CLEAR     42  42  99 CALM      30.13S
PHILLIPS       CLEAR     49  47  93 SE6       30.10F
TOMAHAWK       CLEAR     45  44  96 CALM      30.14S FOG
MEDFORD        CLEAR     47  46  97 SE5       30.12S
MERRILL        CLEAR     48  48  97 SE3       30.14S
$$

WIZ029-030-035-036-043>047-190400-
CENTRAL WISCONSIN

CITY           SKY/WX    TMP DP  RH WIND       PRES   REMARKS
WAUSAU         CLEAR     48  46  93 E5        30.14R
MOSINEE        CLEAR     46  46 100 E5        30.15R
MARSHFIELD     CLEAR     50  48  93 SE6       30.13S
STEVENS POINT  CLEAR     46  45  96 CALM      30.16R
WAUPACA        CLEAR     50  49  95 CALM      30.15S
WAUTOMA        FOG       46  46 100 CALM      30.16S VSB 3/4
WISC RAPIDS    CLEAR     50  48  93 E5        30.15S
CAMP DOUGLAS   NOT AVBL
$$

WIZ011>013-019>022-031-037>040-048>050-190400-
NORTHEAST WISCONSIN

CITY           SKY/WX    TMP DP  RH WIND       PRES   REMARKS
ANTIGO         CLEAR     44  43  97 SE5       30.16R
STURGEON BAY   CLEAR     46  43  87 SE3       30.17S
GREEN BAY      CLEAR     48  46  93 CALM      30.17S
MANITOWOC      NOT AVBL
APPLETON       PTCLDY    52  46  82 SE8       30.16S
CLINTONVILLE   CLEAR     46  45  93 CALM      30.16R
OSHKOSH        CLEAR     51  49  92 SE5       30.16R
$$

WIZ032>034-041-042-053>061-190400-
SOUTHWEST WISCONSIN

CITY           SKY/WX    TMP DP  RH WIND       PRES   REMARKS
LA CROSSE      CLEAR     60  54  80 SE8       30.09R
SPARTA         CLEAR     52  50  93 CALM      30.12S
VIROQUA        FAIR      55  55 100 SE6       30.12R
BOSCOBEL       CLEAR     56  53  90 CALM      30.12R FOG
PRAIRIE DU CHI CLEAR     59  52  77 E5        30.09S
PLATTEVILLE    FAIR      56  52  87 CALM      30.12S
$$

WIZ056-057-062-063-064-067-068-190400-
SOUTH CENTRAL WISCONSIN

CITY           SKY/WX    TMP DP  RH WIND       PRES   REMARKS
BARABOO/DELLS  CLEAR     53  50  90 CALM      30.14R
LONE ROCK      NOT AVBL
WATERTOWN      CLEAR     50  50 100 E3        30.15R
MADISON        PTCLDY    54  51  90 E5        30.15R
MIDDLETON      FAIR      50  49  99 CALM      30.14R
MONROE         CLEAR     55  54  94 E5        30.13R
JANESVILLE     CLEAR     54  50  87 E5        30.14R
$$

WIZ051-052-058>065-066-070>072-190400-
SOUTHEAST WISCONSIN

CITY           SKY/WX    TMP DP  RH WIND       PRES   REMARKS
MILWAUKEE      MOCLDY    54  50  86 NE7       30.17F
WAUKESHA       MOCLDY    50  46  87 E5        30.18S
MILWAUKEE/TIMM CLOUDY    54  48  82 E3        30.18S
RACINE         CLEAR     54  50  86 N3        30.18S
BURLINGTON     CLOUDY    52  51  95 E6        30.16S
KENOSHA        CLEAR     52  51  97 NE6       30.16F
FOND DU LAC    CLEAR     50  47  89 SE5       30.17R
SHEBOYGAN      CLEAR     43  42  97 CALM      30.17S
WEST BEND      CLEAR     46  43  87 CALM      30.17S FOG
JUNEAU         CLEAR     51  49  95 E7        30.17R FOG
$$

LSZ147-162-190400-
LAKE SUPERIOR

STATION/POSITION TIME  TEMP    WIND        PRES    WAVE
                       AIR SEA DIR/SP/G            HT/PER
                 (UTC) (F)     (DEG/KT/KT) (MB)    (FT/S)
W MID LAKE BUOY  0150   47 47   90/  6/  8 1019.2R   1/ 3
DEVILS ISLAND    0200   48      90/ 10/ 11 1018.8F
PORT WING        0200   47      90/  2/  3 1017.9F
SAXON HARBOR     0200   45      CALM  /  4 1018.3
$$

LMZ867-665-643>646-190400-
LAKE MICHIGAN

STATION/POSITION TIME  TEMP    WIND        PRES    WAVE
                       AIR SEA DIR/SP/G            HT/PER
                 (UTC) (F)     (DEG/KT/KT) (MB)    (FT/S)
N MID LAKE BUOY  0150   53 58  120/  6/  8 1022.1S   0
NORTHPORT PIER   0200   53     120/  8/  9 1021.7R
KEWAUNEE LAKESHO 0200   53     110/  3/  4 1020.7R
SHEBOYGAN LAKESH 0200   52 50   30/  4/  4 1022.2R
PORT WASHINGTON  0240   52     270/  2/  2 1022.4R
ATWATER BUOY     0200   56     110/  2/  4 1022.7R
MILWAUKEE LAKESH 0200   56      80/  4/  6   N/A
S MID LAKE BUOY  0150   60 65   10/  8/ 10 1021.6R   2/ 6
KENOSHA   LAKESH 0200   56      10/  6/  7 1021.0S
$$

TC  - TEMPERATURE IN CELSIUS
VSB - VISIBILITY IN STATUTE MILES
WCI - WIND CHILL INDEX
HX  - HEAT INDEX



USA.gov is the U.S. government's official web portal to all federal, state and local government web resources and services.